Погода в Садовке

Россия / Саратовская область     52°29′07″N   46°35′26″E
темп.,
°C
ветер,
м/с
пор.,
м/с
влажн.,
%
обл.,
%
осадки,
мм/ч
давл.,
гПа
погр.,
м
24 мая, вт
вт2401:00+3сз23790 0.0 100648
04:00+2зсз33790 0.0 100750
07:00+5зюз47715 0.0 1007258
10:00+11зюз68575 0.0 10071065
13:00+13зюз6851100 0.1 10062032
16:00+13юз685599 0.1 10061875
19:00+12зюз695896 0.1 1007434
22:00+8зсз127082 0.2 100811
25 мая, ср
ср2501:00+6ссз5881100 0.0 1008241
04:00+6зсз51077100 0.0 1009536
07:00+4сз688248 0.0 1011589
10:00+7сз68595 0.0 10111218
13:00+9сз6748100 0.1 10121916
16:00+10сз5749100 0.1 10132104
19:00+9сз56575 0.1 10141442
22:00+4зсз33735 0.1 101537
26 мая, чт
чт2601:00+3з33825 0.0 101655
04:00+2з239111 0.0 101640
07:00+5з347721 0.0 1017232
10:00+10з455522 0.0 10161468
13:00+11зюз575599 0.0 10151610
16:00+13зюз3757100 0.0 10141452
19:00+14ю4766100 0.0 1013415
22:00+10ю51372100 0.0 1013344
27 мая, пт
пт2701:00+10ю61474100 0.0 1010365
04:00+10ююз71791100 0.6 1008953
07:00+11юз8149295 1.9 1007875
10:00+13юз9137872 2.1 10071141
13:00+15зюз61172100 0.7 10061408
16:00+15зюз11158283 4.1 10061384
19:00+14з712760 1.4 10061008
22:00+10з512870 1.4 1009388
28 мая, сб
сб2801:00+9зюз5129169 0.0 1010281
04:00+8зюз4990100 0.0 1011177
07:00+10ююз3983100 0.0 1011246
10:00+16ююз8126340 0.0 10101299
13:00+19ююз9126043 0.0 10091843
16:00+19ююз8136512 0.1 10081566
19:00+15з6129397 2.8 1009619
22:00+13зюз61483100 2.9 1011598